Погода в Осташково

Россия / Омская область     54°57′45″N   73°33′19″E
темп.,
°C
ветер,
м/с
пор.,
м/с
влажн.,
%
обл.,
%
осадки,
мм/ч
давл.,
гПа
погр.,
м
19 мая, ср
ср1900:00+14ссв489099 2.7 1011407
03:00+13ссв6986100 0.1 1012675
06:00+12ссв6118042 0.5 1014759
09:00+13ссв795887 0.0 10161112
12:00+17ссв783921 0.0 10162051
15:00+18с783326 0.0 10172330
18:00+17с783567 0.0 10172329
21:00+14с484247 0.0 10191085
20 мая, чт
чт2000:00+10с345481 0.0 1020113
03:00+9с511545 0.0 1020333
06:00+7с510645 0.0 1022392
09:00+10ссв564776 0.0 10231026
12:00+13с453222 0.0 10231572
15:00+15ссз453784 0.0 10221797
18:00+10с3475100 0.8 1023355
21:00+9ююв3586100 1.9 1021281
21 мая, пт
пт2100:00+10ююв588499 2.1 1020407
03:00+10ююв51083100 0.3 1018375
06:00+9юв598044 0.3 1018311
09:00+13юв455832 0.0 1019522
12:00+17вюв43495 0.0 10201028
15:00+19всв334634 0.0 10211516
18:00+19всв224562 0.0 10211331
21:00+16всв236016 0.0 102297
22 мая, сб
сб2200:00+13юв23675 0.0 102274
03:00+12ю34700 0.0 102281
06:00+12юз37695 0.0 1022175
09:00+18з575110 0.0 1021486
12:00+23зсз45395 0.0 1021948
15:00+27зсз44337 0.0 10191564
18:00+27зсз34315 0.0 10191996
21:00+22ссз22465 0.0 101811
23 мая, вс
вс2300:00+20юз22495 0.0 101812
03:00+18зюз34509 0.0 101957
06:00+18юз33550 0.0 101855
09:00+23зюз35443 0.0 1018381
12:00+27з333283 0.0 10181411
15:00+29зюз262538 0.0 10173127
18:00+25сз7104273 0.0 1017786
21:00+20сз3648100 0.0 1017111